This is the latest recevied weather packets stored in our database for station/object KH6DH-13. If no packets are shown the sender has not sent any weather packets the latest 10 day(s).
| Time | Temp. | Humidity | Pressure | Rain* | Wind** | Luminosity | Snow |
|---|---|---|---|---|---|---|---|
| 1777879526 | 22.78° C | - | - | 0.25 mm | 0.89 m/s, 104° | - | - |
| 1777878925 | 23.33° C | - | - | 0.25 mm | 1.34 m/s, 52° | - | - |
| 1777878324 | 23.33° C | - | - | 0.25 mm | 0.45 m/s, 198° | - | - |
| 1777877723 | 23.33° C | - | - | 0.25 mm | 0.89 m/s, 25° | - | - |
| 1777877122 | 23.33° C | - | - | 0.25 mm | 0.89 m/s, 314° | - | - |
| 1777876521 | 23.33° C | - | - | 0 mm | 1.79 m/s, 359° | - | - |
| 1777875920 | 23.33° C | - | - | 0 mm | 2.68 m/s, 76° | - | - |
| 1777875319 | 23.33° C | - | - | 0 mm | 1.34 m/s, 83° | - | - |
| 1777874716 | 23.33° C | - | - | 0 mm | 1.34 m/s, 69° | - | - |
| 1777874115 | 23.33° C | - | - | 0 mm | 2.68 m/s, 321° | - | - |
| 1777873514 | 23.33° C | - | - | 0 mm | 1.34 m/s, 41° | - | - |
| 1777872911 | 23.89° C | - | - | 0 mm | 1.34 m/s, 105° | - | - |
| 1777872310 | 23.89° C | - | - | 0 mm | 2.68 m/s, 135° | - | - |
| 1777871709 | 24.44° C | - | - | 0 mm | 2.24 m/s, 0° | - | - |
| 1777871142 | 24.44° C | - | - | 0 mm | 1.79 m/s, 129° | - | - |
| 1777871108 | 24.44° C | - | - | 0 mm | 1.79 m/s, 129° | - | - |
| 1777870507 | 24.44° C | - | - | 0 mm | 1.34 m/s, 70° | - | - |
| 1777869903 | 25° C | - | - | 0 mm | 1.79 m/s, 314° | - | - |
| 1777869302 | 25° C | - | - | 0 mm | 1.79 m/s, 359° | - | - |
| 1777868701 | 25° C | - | - | 0 mm | 1.79 m/s, 32° | - | - |
| 1777868100 | 26.11° C | - | - | 0 mm | 1.34 m/s, 76° | - | - |
| 1777867499 | 26.11° C | - | - | 0 mm | 0.89 m/s, 210° | - | - |
| 1777866898 | 27.22° C | - | - | 0 mm | 1.34 m/s, 39° | - | - |
| 1777866297 | 28.33° C | - | - | 0 mm | 1.79 m/s, 343° | - | - |
| 1777865696 | 31.11° C | - | - | 0 mm | 2.68 m/s, 58° | - | - |
* Rain latest hour (hover to see other rain measurements)
** Current wind speed in m/s (hover to see current wind gust speed)